This is the latest recevied weather packets stored in our database for station/object N4WFF. If no packets are shown the sender has not sent any weather packets the latest 10 day(s).
| Time | Temp. | Humidity | Pressure | Rain* | Wind** | Luminosity | Snow |
|---|---|---|---|---|---|---|---|
| 1777516571 | 19.44° C | 95% | 1015 hPa | 0.51 mm | - | 0 W/m² | - |
| 1777516256 | 19.44° C | 95% | 1014.8 hPa | 0.76 mm | - | 0 W/m² | - |
| 1777515955 | 20° C | 95% | 1014.8 hPa | 0.25 mm | - | 0 W/m² | - |
| 1777515656 | 20° C | 95% | 1014.9 hPa | 1.27 mm | - | 0 W/m² | - |
| 1777515356 | 20° C | 96% | 1014.8 hPa | 0 mm | - | 0 W/m² | - |
| 1777515056 | 20° C | 96% | 1014.8 hPa | 0.25 mm | - | 0 W/m² | - |
| 1777514757 | 20.56° C | 95% | 1014.6 hPa | 0.25 mm | - | 0 W/m² | - |
| 1777514456 | 20.56° C | 95% | 1014.6 hPa | 0 mm | - | 0 W/m² | - |
| 1777514155 | 20.56° C | 95% | 1014.5 hPa | 0 mm | - | 0 W/m² | - |
| 1777513855 | 20.56° C | 95% | 1014.1 hPa | 1.27 mm | - | 0 W/m² | - |
| 1777513556 | 20.56° C | 95% | 1014.1 hPa | 0.51 mm | - | 0 W/m² | - |
| 1777513256 | 20.56° C | 95% | 1014.2 hPa | 2.03 mm | - | 0 W/m² | - |
| 1777512955 | 20.56° C | 95% | 1014.1 hPa | 6.1 mm | - | 0 W/m² | - |
| 1777512655 | 20.56° C | 95% | 1014.3 hPa | 9.4 mm | - | 0 W/m² | - |
| 1777512355 | 20.56° C | 95% | 1014.8 hPa | 8.13 mm | - | 0 W/m² | - |
| 1777512055 | 20.56° C | 95% | 1015 hPa | 9.14 mm | - | 0 W/m² | - |
| 1777511755 | 20.56° C | 94% | 1014.9 hPa | 3.3 mm | - | 0 W/m² | - |
| 1777511456 | 21.11° C | 95% | 1015.1 hPa | 5.08 mm | - | 0 W/m² | - |
| 1777511155 | 21.11° C | 95% | 1015.1 hPa | 2.79 mm | - | 0 W/m² | - |
| 1777510855 | 21.11° C | 95% | 1015.1 hPa | 9.91 mm | - | 0 W/m² | - |
| 1777510555 | 21.11° C | 95% | 1014.9 hPa | 4.57 mm | - | 0 W/m² | - |
| 1777510255 | 21.11° C | 94% | 1014.6 hPa | 4.32 mm | - | 0 W/m² | - |
| 1777509955 | 21.11° C | 93% | 1014.5 hPa | 4.83 mm | - | 0 W/m² | - |
| 1777509656 | 21.11° C | 93% | 1014.2 hPa | 9.14 mm | - | 0 W/m² | - |
| 1777509355 | 21.11° C | 93% | 1014 hPa | 5.33 mm | - | 0 W/m² | - |
* Rain latest hour (hover to see other rain measurements)
** Current wind speed in m/s (hover to see current wind gust speed)